This demonstration page uses our WeatherBlox Daily Observations layout. Learn more.

39.92423, -83.80882

Hourly Observations for September 5, 2018

Temp ( °F °C ) Dew Point ( °F °C ) Humidity (%) Winds ( mph kmh ) Pressure ( in mb ) Visibility ( mi km ) Precip ( " mm )
12:56 am 00:56 Clear 71 21.7 71 21.7 100 100 Calm 30.19 1022 10 16.0934 0 0
1:56 am 01:56 Clear 70 21.1 70 21.1 100 100 E 3 6 30.19 1022 10 16.0934 0 0
2:56 am 02:56 Clear 70 21.1 70 21.1 100 100 Calm 30.18 1022 10 16.0934 0 0
3:56 am 03:56 Clear 69 20.6 69 20.6 100 100 SE 3 6 30.18 1022 10 16.0934 0 0
4:56 am 04:56 Clear 68 20 68 20 100 100 SSE 3 6 30.17 1022 10 16.0934 0 0
5:56 am 05:56 Clear 69 20.6 68 20 96 96 Calm 30.17 1022 10 16.0934 0 0
6:56 am 06:56 Clear 68 20 68 20 100 100 Calm 30.19 1022 10 16.0934 0 0
7:56 am 07:56 Sunny 73 22.8 71 21.7 94 94 S 3 6 30.19 1023 10 16.0934 0 0
8:56 am 08:56 Sunny 79 26.1 73 22.8 82 82 WSW 3 6 30.2 1023 10 16.0934 0 0
9:56 am 09:56 Sunny 83 28.3 73 22.8 72 72 SW 6 9 30.2 1023 10 16.0934 0 0
10:56 am 10:56 Sunny 86 30 73 22.8 65 65 WSW 6 9 30.2 1023 10 16.0934 0 0
11:56 am 11:56 Sunny 89 31.7 72 22.2 57 57 VRB 6 9 30.19 1023 10 16.0934 0 0
12:56 pm 12:56 Sunny 90 32.2 72 22.2 56 56 SW 7 11 30.18 1022 10 16.0934 0 0
1:42 pm 13:42 Sunny with Nearby Thunderstorms 91 33 72 22 52 52 S 8 13 30.12 1020 10 16.0934 0 0
1:46 pm 13:46 Sunny with Nearby Thunderstorms 91 33 70 21 49 49 S 9 15 30.12 1020 10 16.0934 0 0
1:56 pm 13:56 Sunny 90 32.2 70 21.1 52 52 S 8 13 30.16 1021 10 16.0934 0 0
2:17 pm 14:17 Sunny with Nearby Thunderstorms 91 33 73 23 56 56 SW 8 13 30.12 1020 10 16.0934 0 0
2:56 pm 14:56 Cloudy with Nearby Thunderstorms 85 29.4 68 20 57 57 W 10 17 30.16 1021 10 16.0934 0 0
3:19 pm 15:19 Partly Cloudy 82 28 66 19 58 58 WNW 10 17 30.12 1020 10 16.0934 0 0
3:35 pm 15:35 Sunny with Thunderstorms 82 28 68 20 62 62 NNW 3 6 30.12 1020 10 16.0934 0 0
3:56 pm 15:56 Partly Cloudy with Thunderstorms 85 29.4 69 20.6 59 59 E 5 7 30.15 1021 10 16.0934 0 0
4:04 pm 16:04 Sunny 84 29 70 21 62 62 N 3 6 30.12 1020 10 16.0934 0 0
4:15 pm 16:15 Sunny with Nearby Thunderstorms 88 31 70 21 55 55 NNW 6 9 30.12 1020 10 16.0934 0 0
4:56 pm 16:56 Sunny 85 29.4 70 21.1 61 61 WNW 5 7 30.14 1021 10 16.0934 0 0
5:13 pm 17:13 Sunny with Nearby Thunderstorms 84 29 70 21 62 62 Calm 30.09 1019 10 16.0934 0 0
5:28 pm 17:28 Sunny 82 28 70 21 66 66 SSE 5 7 30.09 1019 10 16.0934 0 0
5:56 pm 17:56 Sunny 82 27.8 70 21.1 67 67 SSW 6 9 30.15 1021 10 16.0934 0 0
6:56 pm 18:56 Sunny 79 26.1 72 22.2 79 79 S 6 9 30.16 1021 10 16.0934 0 0
7:56 pm 19:56 Sunny 78 25.6 71 21.7 79 79 SW 8 13 30.16 1022 10 16.0934 0 0
8:56 pm 20:56 Clear 76 24.4 71 21.7 85 85 SSW 6 9 30.17 1022 10 16.0934 0 0
9:56 pm 21:56 Clear 75 23.9 70 21.1 84 84 SSW 7 11 30.19 1022 10 16.0934 0 0
10:56 pm 22:56 Clear 74 23.3 70 21.1 88 88 S 5 7 30.18 1022 10 16.0934 0 0
11:56 pm 23:56 Clear 72 22.2 71 21.7 97 97 Calm 30.18 1022 10 16.0934 0 0

Powered by AerisWeather